Lid_Strength_Index
7 7 7 7 7 7 7 7 9 7 7 6 5 4 4 3 3 3 4 3 3 3 2 2 2 2 1 1 1 1 1 1 1 1 0 -0 0 0 -0 -0 -0 -0 -0 -0
9 7 7 8 7 7 7 7 7 7 7 4 4 3 4 3 3 4 4 3 3 2 2 2 2 2 2 2 1 1 1 1 1 1 0 0 0 0 0 0 -0 -0 -0 -0
10 7 8 10 8 7 7 6 6 8 6 4 5 4 4 3 3 3 3 3 3 3 2 2 2 2 2 2 1 1 1 1 1 1 1 1 0 0 1 1 0 0 0 -0
10 8 13 7 5 6 6 6 5 5 5 5 5 5 4 3 3 3 2 3 3 2 2 2 2 2 1 1 1 1 1 1 1 1 1 1 1 1 1 0 0 0 0 -0
11 11 9 7 7 7 7 7 6 7 6 5 5 4 4 3 3 3 2 2 2 2 2 1 1 1 2 2 2 2 2 1 1 1 1 1 1 1 1 1 1 1 0 0
9 12 13 7 6 5 6 9 6 6 7 6 6 7 4 4 3 3 2 1 2 1 1 2 1 1 2 2 2 2 2 1 1 1 1 1 1 1 0 1 1 1 0 0
10 11 9 6 6 5 11 10 6 6 6 6 7 6 4 3 3 2 2 2 1 1 2 1 1 1 2 2 2 2 1 1 1 1 1 1 1 1 1 1 1 1 1 0
9 11 12 6 6 9 8 5 5 5 5 6 5 4 4 3 3 3 3 2 2 2 2 1 1 2 2 2 1 1 1 1 1 1 1 1 1 1 1 1 1 1 1 1
8 8 6 5 6 5 4 5 5 5 4 4 5 5 4 4 3 3 3 2 2 2 2 1 1 1 2 2 1 1 1 1 1 1 1 1 1 1 2 1 1 2 2 2
7 6 6 5 5 4 4 4 4 4 4 4 5 4 4 3 3 2 3 2 2 2 2 2 1 1 1 1 1 1 2 1 1 1 1 1 1 1 1 2 2 2 2 2
7 5 5 5 4 4 4 4 4 3 3 4 4 4 4 3 3 2 3 2 2 2 2 2 2 1 1 1 1 2 1 1 1 1 2 2 1 1 1 0 1 1 1 1
8 6 6 6 4 3 4 4 4 4 4 3 3 4 3 3 3 3 3 2 2 2 2 2 2 2 1 1 1 1 2 2 2 1 1 1 1 1 11 8 9 9 8 3
6 4 4 4 3 3 4 4 3 3 3 4 3 4 3 4 3 5 3 3 3 3 2 2 2 2 1 1 1 2 2 2 2 2 1 2 2 2 2 4 10 11 12 11
3 4 5 4 5 3 3 3 3 3 3 3 3 3 3 4 3 3 3 2 2 2 2 2 2 2 1 1 1 1 1 6 2 2 1 2 1 2 2 2 2 2 8 9
3 3 4 4 3 3 3 3 4 4 3 3 3 3 3 4 3 3 2 1 1 2 2 2 2 2 1 1 1 1 1 1 1 1 1 2 1 1 2 2 2 2 2 8
3 3 4 5 5 3 4 4 5 4 4 3 3 3 3 3 3 2 2 2 2 3 2 2 2 2 1 1 1 1 1 3 2 1 1 2 2 2 2 2 2 2 2 2
4 5 5 5 4 4 5 4 4 4 3 4 3 2 3 3 3 3 2 2 1 1 1 2 2 1 1 1 1 1 1 1 3 2 2 2 2 2 2 3 2 2 2 2
2 3 4 5 3 4 5 4 3 3 3 2 2 2 3 3 3 4 3 2 2 1 1 1 0 1 1 1 1 2 2 2 2 2 1 2 2 2 2 2 2 2 2 2
2 3 5 4 3 4 5 3 3 3 3 2 3 3 3 3 3 3 2 2 2 2 2 1 3 1 1 2 1 3 7 2 2 2 2 3 2 2 2 2 2 2 2 2
2 2 4 4 3 3 4 3 3 3 3 3 2 3 3 3 2 2 2 2 2 2 1 1 1 1 1 1 4 3 4 7 6 2 2 2 2 3 2 5 2 2 2 2
3 3 3 3 3 3 3 3 3 3 2 2 3 3 3 2 2 2 3 3 1 1 1 3 1 1 1 2 2 2 2 4 3 2 2 2 2 2 2 2 2 2 2 1
3 4 4 3 4 4 3 3 3 2 2 2 2 2 2 2 2 2 2 2 1 4 1 1 0 3 2 2 1 2 2 2 2 2 2 2 2 2 2 1 1 1 1 1
4 3 3 3 3 3 3 3 2 2 3 3 2 3 3 3 2 3 3 1 1 3 1 0 4 5 5 1 1 1 2 1 2 1 1 1 1 2 2 1 1 1 1 1
4 4 3 3 3 3 4 3 2 2 2 2 2 2 2 3 2 1 1 3 5 3 1 1 3 5 6 1 1 1 1 2 1 1 1 7 1 1 1 1 1 1 1 2
3 3 3 3 4 4 3 3 2 2 2 2 2 1 1 1 2 2 1 1 4 2 1 6 6 6 1 0 0 1 1 1 1 1 1 0 0 0 1 1 1 1 1 1
5 4 3 2 2 3 3 3 3 3 2 3 2 2 1 1 1 1 1 2 1 2 1 1 1 1 1 1 1 0 1 1 0 0 1 1 1 0 1 1 1 1 1 0
6 7 4 4 4 3 3 3 2 3 2 2 2 1 1 2 2 2 3 1 1 1 1 1 1 1 1 1 1 1 1 1 5 1 1 1 1 1 1 1 0 -0 -0 -0